This is the latest recevied weather packets stored in our database for station/object N1KM-15. If no packets are shown the sender has not sent any weather packets the latest 10 day(s).
| Time | Temp. | Humidity | Pressure | Rain* | Wind** | Luminosity | Snow |
|---|---|---|---|---|---|---|---|
| 1777633200 | 8.89° C | 79% | 1007.7 hPa | 0 mm | - | - | - |
| 1777632300 | 8.89° C | 82% | 1007.6 hPa | 0 mm | - | - | - |
| 1777631400 | 8.89° C | 86% | 1007.4 hPa | 0 mm | - | - | - |
| 1777630500 | 8.89° C | 86% | 1007.3 hPa | 0 mm | - | - | - |
| 1777629600 | 8.33° C | 85% | 1007.2 hPa | 0 mm | - | - | - |
| 1777628700 | 8.33° C | 85% | 1007.1 hPa | 0 mm | - | - | - |
| 1777627800 | 8.33° C | 85% | 1007.1 hPa | 0 mm | - | - | - |
| 1777626900 | 8.33° C | 86% | 1007 hPa | 0 mm | - | - | - |
| 1777626000 | 8.33° C | 86% | 1006.8 hPa | 0 mm | - | - | - |
| 1777625100 | 8.89° C | 86% | 1006.7 hPa | 0 mm | - | - | - |
| 1777624200 | 8.89° C | 85% | 1006.6 hPa | 0 mm | - | - | - |
| 1777623300 | 8.33° C | 86% | 1006.3 hPa | 0 mm | - | - | - |
| 1777622400 | 8.33° C | 86% | 1006.3 hPa | 0 mm | - | - | - |
| 1777621500 | 8.33° C | 86% | 1006.2 hPa | 0 mm | - | - | - |
| 1777620600 | 8.33° C | 87% | 1006 hPa | 0 mm | - | - | - |
| 1777619700 | 8.33° C | 88% | 1006 hPa | 0 mm | - | - | - |
| 1777618800 | 8.33° C | 88% | 1005.8 hPa | 0 mm | - | - | - |
| 1777617901 | 7.78° C | 88% | 1005.9 hPa | 0 mm | - | - | - |
| 1777617000 | 7.78° C | 89% | 1005.8 hPa | 0 mm | - | - | - |
| 1777616100 | 7.78° C | 92% | 1005.8 hPa | 0 mm | - | - | - |
| 1777615200 | 7.78° C | 93% | 1005.9 hPa | 0 mm | - | - | - |
| 1777614300 | 7.78° C | 95% | 1005.9 hPa | 0 mm | - | - | - |
| 1777613400 | 7.78° C | 96% | 1005.9 hPa | 0 mm | - | - | - |
| 1777612500 | 7.78° C | 97% | 1005.9 hPa | 0 mm | - | - | - |
| 1777611600 | 7.78° C | 97% | 1006 hPa | 0 mm | - | - | - |
* Rain since midnight (hover to see other rain measurements)
** Current wind speed in m/s (hover to see current wind gust speed)